• In Netherlands
  • List of Countries
  • For 7 days
  • Water Temperature
  • Satellite Maps
  • Weather Map
  • Weather Widgets
  • user-avatar
    Login

    Hourly Weather Asadabad

    Today, 21 February, Tuesday

    Time Temperature Precipitation Wind Pressure Humidity
    00:00 +3°C° 0 mm 4 mps 653 mmHg 33%
    01:00 +3°C° 0 mm 4 mps 653 mmHg 32%
    02:00 +3°C° 0 mm 4 mps 653 mmHg 31%
    03:00 +3°C° 0 mm 4 mps 653 mmHg 29%
    04:00 +1°C° 0 mm 4 mps 653 mmHg 28%
    05:00 +1°C° 0 mm 4 mps 652 mmHg 27%
    06:00 +1°C° 0 mm 4 mps 652 mmHg 27%
    07:00 +3°C° 0 mm 4 mps 653 mmHg 27%
    08:00 +3°C° 0 mm 3 mps 653 mmHg 27%
    09:00 +5°C° 0 mm 3 mps 653 mmHg 25%
    10:00 +9°C° 0 mm 2 mps 654 mmHg 23%
    11:00 +12°C° 0 mm 2 mps 653 mmHg 21%
    12:00 +12°C° 0 mm 2 mps 653 mmHg 21%
    13:00 +13°C° 0 mm 2 mps 654 mmHg 22%
    14:00 +13°C° 0 mm 2 mps 654 mmHg 22%
    15:00 +13°C° 0 mm 1 mps 654 mmHg 25%
    16:00 +12°C° 0 mm 1 mps 654 mmHg 28%
    17:00 +12°C° 0 mm 1 mps 654 mmHg 32%
    18:00 +9°C° 0 mm 1 mps 654 mmHg 33%
    19:00 +7°C° 0 mm 1 mps 654 mmHg 35%
    20:00 +4°C° 0 mm 2 mps 654 mmHg 37%
    21:00 +4°C° 0 mm 2 mps 654 mmHg 37%
    22:00 +4°C° 0 mm 2 mps 654 mmHg 36%
    23:00 +3°C° 0 mm 3 mps 655 mmHg 36%

    Tomorrow, 22 February, Wednesday

    Time Temperature Precipitation Wind Pressure Humidity
    00:00 +3°C° 0 mm 3 mps 655 mmHg 35%
    01:00 +2°C° 0 mm 3 mps 655 mmHg 35%
    02:00 +2°C° 0 mm 3 mps 655 mmHg 35%
    03:00 +2°C° 0 mm 3 mps 655 mmHg 34%
    04:00 +1°C° 0 mm 3 mps 655 mmHg 34%
    05:00 +1°C° 0 mm 3 mps 655 mmHg 33%
    06:00 +2°C° 0 mm 3 mps 655 mmHg 33%
    07:00 +3°C° 0 mm 3 mps 656 mmHg 32%
    08:00 +3°C° 0 mm 3 mps 656 mmHg 31%
    09:00 +6°C° 0 mm 2 mps 657 mmHg 28%
    10:00 +8°C° 0 mm 2 mps 657 mmHg 26%
    11:00 +10°C° 0 mm 2 mps 658 mmHg 24%
    12:00 +12°C° 0 mm 1 mps 657 mmHg 25%
    13:00 +12°C° 0 mm 1 mps 657 mmHg 26%
    14:00 +13°C° 0 mm 1 mps 657 mmHg 26%
    15:00 +12°C° 0 mm 1 mps 657 mmHg 29%
    16:00 +12°C° 0 mm 1 mps 657 mmHg 31%
    17:00 +11°C° 0 mm 1 mps 657 mmHg 34%
    18:00 +9°C° 0 mm 2 mps 657 mmHg 36%
    19:00 +7°C° 0 mm 2 mps 657 mmHg 38%
    20:00 +5°C° 0 mm 2 mps 657 mmHg 40%
    21:00 +4°C° 0 mm 2 mps 658 mmHg 40%
    22:00 +4°C° 0 mm 2 mps 658 mmHg 40%
    23:00 +3°C° 0 mm 3 mps 658 mmHg 40%

    Day after tomorrow, 23 February, Thursday

    Time Temperature Precipitation Wind Pressure Humidity
    00:00 +3°C° 0 mm 3 mps 658 mmHg 38%
    01:00 +2°C° 0 mm 3 mps 658 mmHg 37%
    02:00 +2°C° 0 mm 3 mps 658 mmHg 36%
    03:00 +2°C° 0 mm 3 mps 658 mmHg 35%
    04:00 +2°C° 0 mm 3 mps 657 mmHg 34%
    05:00 +2°C° 0 mm 3 mps 657 mmHg 33%
    06:00 +2°C° 0 mm 3 mps 658 mmHg 31%
    07:00 +3°C° 0 mm 3 mps 658 mmHg 30%
    08:00 +4°C° 0 mm 3 mps 659 mmHg 29%
    09:00 +7°C° 0 mm 2 mps 659 mmHg 27%
    10:00 +9°C° 0 mm 2 mps 660 mmHg 24%
    11:00 +12°C° 0 mm 2 mps 660 mmHg 21%
    12:00 +12°C° 0 mm 2 mps 660 mmHg 22%
    13:00 +13°C° 0 mm 2 mps 659 mmHg 23%
    14:00 +13°C° 0 mm 2 mps 659 mmHg 24%
    15:00 +13°C° 0 mm 2 mps 659 mmHg 26%
    16:00 +12°C° 0 mm 1 mps 659 mmHg 28%
    17:00 +12°C° 0 mm 1 mps 659 mmHg 30%
    18:00 +9°C° 0 mm 2 mps 659 mmHg 32%
    19:00 +8°C° 0 mm 2 mps 659 mmHg 33%
    20:00 +6°C° 0 mm 2 mps 659 mmHg 35%
    21:00 +6°C° 0 mm 2 mps 659 mmHg 35%
    22:00 +4°C° 0 mm 3 mps 660 mmHg 35%
    23:00 +4°C° 0 mm 3 mps 660 mmHg 35%

    24 February, Friday

    Time Temperature Precipitation Wind Pressure Humidity
    00:00 +4°C° 0 mm 3 mps 660 mmHg 34%
    01:00 +4°C° 0 mm 3 mps 659 mmHg 34%
    02:00 +3°C° 0 mm 3 mps 659 mmHg 33%
    03:00 +3°C° 0 mm 3 mps 659 mmHg 31%
    04:00 +3°C° 0 mm 3 mps 658 mmHg 30%
    05:00 +3°C° 0 mm 3 mps 658 mmHg 29%
    06:00 +4°C° 0 mm 3 mps 658 mmHg 28%
    07:00 +5°C° 0 mm 3 mps 658 mmHg 27%
    08:00 +5°C° 0 mm 3 mps 659 mmHg 26%
    09:00 +8°C° 0 mm 2 mps 659 mmHg 24%
    10:00 +12°C° 0 mm 2 mps 659 mmHg 22%
    11:00 +14°C° 0 mm 1 mps 660 mmHg 20%
    12:00 +14°C° 0 mm 1 mps 660 mmHg 20%
    13:00 +15°C° 0 mm 1 mps 659 mmHg 20%
    14:00 +16°C° 0 mm 1 mps 659 mmHg 20%
    15:00 +15°C° 0 mm 1 mps 659 mmHg 24%
    16:00 +15°C° 0 mm 1 mps 659 mmHg 27%
    17:00 +15°C° 0 mm 1 mps 658 mmHg 30%
    18:00 +13°C° 0 mm 1 mps 658 mmHg 31%
    19:00 +11°C° 0 mm 1 mps 658 mmHg 32%
    20:00 +9°C° 0 mm 1 mps 658 mmHg 32%
    21:00 +9°C° 0 mm 1 mps 659 mmHg 32%
    22:00 +8°C° 0 mm 2 mps 659 mmHg 32%
    23:00 +8°C° 0 mm 2 mps 659 mmHg 32%

    25 February, Saturday

    Time Temperature Precipitation Wind Pressure Humidity
    00:00 +8°C° 0 mm 2 mps 659 mmHg 32%
    01:00 +7°C° 0 mm 2 mps 659 mmHg 32%
    02:00 +7°C° 0 mm 2 mps 658 mmHg 33%
    03:00 +7°C° 0 mm 2 mps 658 mmHg 33%
    04:00 +6°C° 0 mm 2 mps 658 mmHg 33%
    05:00 +6°C° 0 mm 2 mps 658 mmHg 33%
    06:00 +7°C° 0 mm 2 mps 658 mmHg 33%
    07:00 +7°C° 0 mm 2 mps 659 mmHg 33%
    08:00 +8°C° 0 mm 3 mps 659 mmHg 33%
    09:00 +10°C° 0 mm 2 mps 660 mmHg 30%
    10:00 +13°C° 0 mm 2 mps 660 mmHg 27%
    11:00 +15°C° 0 mm 2 mps 661 mmHg 23%
    12:00 +16°C° 0 mm 2 mps 660 mmHg 23%
    13:00 +16°C° 0 mm 2 mps 660 mmHg 23%
    14:00 +17°C° 0 mm 2 mps 660 mmHg 23%
    15:00 +16°C° 0 mm 2 mps 659 mmHg 25%
    16:00 +16°C° 0 mm 2 mps 659 mmHg 27%
    17:00 +15°C° 0 mm 2 mps 659 mmHg 29%
    18:00 +13°C° 0 mm 2 mps 659 mmHg 32%
    19:00 +12°C° 0 mm 2 mps 659 mmHg 35%
    20:00 +9°C° 0 mm 2 mps 659 mmHg 37%
    21:00 +9°C° 0 mm 3 mps 658 mmHg 38%
    22:00 +8°C° 0 mm 3 mps 658 mmHg 38%
    23:00 +8°C° 0 mm 3 mps 658 mmHg 38%

    26 February, Sunday

    Time Temperature Precipitation Wind Pressure Humidity
    00:00 +7°C° 0 mm 3 mps 658 mmHg 38%
    01:00 +7°C° 0 mm 3 mps 657 mmHg 38%
    02:00 +5°C° 0 mm 3 mps 657 mmHg 38%
    03:00 +5°C° 0 mm 3 mps 657 mmHg 37%
    04:00 +5°C° 0 mm 3 mps 656 mmHg 37%
    05:00 +5°C° 0 mm 3 mps 656 mmHg 36%
    06:00 +5°C° 0 mm 3 mps 657 mmHg 35%
    07:00 +7°C° 0 mm 3 mps 657 mmHg 34%
    08:00 +8°C° 0 mm 3 mps 658 mmHg 33%
    09:00 +10°C° 0 mm 2 mps 658 mmHg 30%
    10:00 +13°C° 0 mm 2 mps 659 mmHg 27%
    11:00 +15°C° 0 mm 2 mps 659 mmHg 25%
    12:00 +15°C° 0 mm 2 mps 659 mmHg 25%
    13:00 +16°C° 0 mm 2 mps 659 mmHg 25%
    14:00 +16°C° 0 mm 2 mps 658 mmHg 25%
    15:00 +16°C° 0 mm 2 mps 658 mmHg 27%
    16:00 +15°C° 0 mm 2 mps 658 mmHg 28%
    17:00 +15°C° 0 mm 2 mps 658 mmHg 29%
    18:00 +13°C° 0 mm 2 mps 658 mmHg 33%
    19:00 +10°C° 0 mm 2 mps 658 mmHg 36%
    20:00 +9°C° 0 mm 3 mps 658 mmHg 39%
    21:00 +8°C° 0 mm 3 mps 658 mmHg 39%
    22:00 +8°C° 0 mm 3 mps 658 mmHg 40%
    23:00 +8°C° 0 mm 3 mps 658 mmHg 40%
    Show more